Weather in Krasnyy Tekstilshchik

Russia / Saratov Oblast     51°21′36″N   45°50′02″E
temp.,
°C
wind,
m/s
gust,
m/s
humid.,
%
clouds,
%
prec.,
mm/h
press.,
hPa
HPBL,
m
8 march, mon
mon801:00−3sw112074100 0.0 1007764
04:00−3wsw111889100 0.2 1005743
07:00−2wsw9168988 0.3 1005532
10:00−1wsw9148779 0.4 1006887
13:00−1wsw91390100 0.1 1007958
16:000sw91487100 0.4 1006864
19:000wsw8148697 0.1 1006549
22:00−3w598796 0.4 1009175
9 march, tue
tue901:00−5wnw3390100 0.0 100951
04:00−6n1184100 0.0 101034
07:00−6ne2288100 0.1 1009130
10:00−7ne3393100 0.7 1010230
13:00−5nnw3376100 0.1 1010494
16:00−5nw577973 0.1 1011663
19:00−9wnw598842 0.0 1012253
22:00−11wnw6108829 0.0 1014291
10 march, wed
wed1001:00−13wnw610888 0.0 1015298
04:00−15wnw6109019 0.0 1016249
07:00−16wnw6119012 0.0 1018282
10:00−15wnw7108923 0.0 1020446
13:00−13wnw7109023 0.0 1022596
16:00−14wnw8118537 0.0 1022691
19:00−16wnw7128557 0.0 1024543
22:00−19nw6128834 0.0 1026443
11 march, thu
thu1101:00−21nw59890 0.0 1027283
04:00−23nw58890 0.0 1029206
07:00−23nw48890 0.0 1030191
10:00−20nw46880 0.0 1031328
13:00−16nw45840 0.0 1032454
16:00−15nw56820 0.0 1032435
19:00−17wnw58870 0.0 1032236
22:00−18nw47870 0.0 1033185
12 march, fri
fri1201:00−19wnw34860 0.0 103485
04:00−19wnw45869 0.0 103490
07:00−19wnw44870 0.0 103484
10:00−15nnw23830 0.0 1036209
13:00−11n11791 0.0 1036377
16:00−9ene017714 0.0 1036438
19:00−12s119215 0.0 103621
22:00−13sw12908 0.0 103725